Location: ?????? ??????
(44.3742°N, 135.2221°E)
Time: 06:21:21
(UTC+00:00)

USA 276 - Pass Details

Date: 19 May 2025
Orbit: 366 x 369 km, 50.0° (Epoch: 12 July)

Event Time Altitude Azimuth Distance (km) Brightness Sun altitude
Exits shadow 17:48:42 26° 171° (S) 694 3.0 -14.5°
Maximum altitude 17:49:22 30° 143° (SE) 637 3.0 -14.4°
Drops below altitude 10° 17:52:00 10° 79° (E) 1,310 5.6 -14.1°
Sets 17:54:13 0° 68° (ENE) 2,180 7.1 -13.9°
